Altus, OK

7:16 AM CDT on September 29, 2016 (GMT -0500)
Altus Air Force Base

Weather History for KLTS - August, 2013

Change the Weather History Date:

Tuesday, August 27, 2013

  Actual Average Record
Temperature  
Mean Temperature 78 °F -  
Max Temperature 92 °F 92 °F 108 °F (2011)
Min Temperature 66 °F 68 °F 61 °F (2010)
Cooling Degree Days 14    
Growing Degree Days 28 (Base 50)    
Moisture  
Dew Point 65 °F    
Average Humidity 56    
Maximum Humidity 82    
Minimum Humidity 40    
Precipitation  
Precipitation 0.00 in - - ()
Sea Level Pressure  
Sea Level Pressure 30.03 in    
Wind  
Wind Speed 10 mph (SE)    
Max Wind Speed 24 mph    
Max Gust Speed 28 mph    
Visibility 10 miles    
Events      
Averages and records for this station are not official NWS values.
T = Trace of Precipitation, MM = Missing Value Source: NWS Daily Summary

Daily Weather History Graph

Daily Weather History Graph

Search for Another Location

Airport or City:

Trip Planner

Search our weather history database for the weather conditions in past years. The results will help you decide how hot, cold, wet, or windy it might be!

Date:

Astronomy

Aug. 27, 2013 Rise Set
Actual Time 7:06 AM CDT 8:09 PM CDT
Civil Twilight 6:40 AM CDT 8:35 PM CDT
Nautical Twilight 6:09 AM CDT 9:06 PM CDT
Astronomical Twilight 5:37 AM CDT 9:38 PM CDT
Moon No Moon Rise 1:47 PM CDT (8/27)
Length of Visible Light 13h 54m
Length of Day
13h 03m
Waning Gibbous, 57% of the Moon is Illuminated
Aug 27
Waning Gibbous
Aug 28
Last Quarter
Sep 5
New
Sep 12
First Quarter
Sep 19
Full

Hourly Weather History & Observations

Time (CDT) Temp. Heat Index Dew Point Humidity Pressure Visibility Wind Dir Wind Speed Gust Speed Precip Events Conditions
12:58 AM 73.2 °F - 60.6 °F 65% 30.04 in 10.0 mi ESE 9.2 mph - N/A   Clear
1:58 AM 72.7 °F - 61.0 °F 67% 30.03 in 10.0 mi ESE 5.8 mph - N/A   Clear
2:58 AM 70.9 °F - 60.6 °F 70% 30.03 in 10.0 mi ESE 4.6 mph - N/A   Clear
3:58 AM 69.4 °F - 60.4 °F 73% 30.04 in 10.0 mi ESE 5.8 mph - N/A   Clear
4:58 AM 68.2 °F - 60.4 °F 76% 30.04 in 10.0 mi ESE 3.5 mph - N/A   Clear
5:58 AM 67.1 °F - 60.4 °F 79% 30.05 in 10.0 mi ESE 3.5 mph - N/A   Clear
6:58 AM 66.4 °F - 60.6 °F 82% 30.07 in 10.0 mi East 5.8 mph - N/A   Clear
7:58 AM 69.6 °F - 62.2 °F 77% 30.07 in 10.0 mi ESE 6.9 mph - N/A   Clear
8:58 AM 76.3 °F - 65.3 °F 69% 30.09 in 10.0 mi SE 11.5 mph - N/A   Clear
9:58 AM 81.3 °F 83.6 °F 66.7 °F 61% 30.09 in 10.0 mi SSE 8.1 mph - N/A   Clear
10:58 AM 85.1 °F 87.4 °F 66.0 °F 53% 30.09 in 10.0 mi Variable 6.9 mph - N/A   Clear
11:58 AM 88.7 °F 90.8 °F 65.3 °F 46% 30.06 in 10.0 mi SSE 11.5 mph - N/A   Mostly Cloudy
12:03 PM 89.6 °F 91.1 °F 64.4 °F 43% 30.11 in 10.0 mi SSE 8.1 mph - N/A   Scattered Clouds
12:58 PM 90.7 °F 91.7 °F 63.5 °F 40% 30.04 in 10.0 mi SE 8.1 mph - N/A   Clear
1:58 PM 91.8 °F 93.8 °F 64.8 °F 41% 30.02 in 10.0 mi SE 12.7 mph 24.2 mph N/A   Mostly Cloudy
2:58 PM 89.6 °F 92.2 °F 66.0 °F 46% 30.02 in 10.0 mi SE 12.7 mph - N/A   Scattered Clouds
3:43 PM 91.4 °F 94.0 °F 66.2 °F 43% 30.04 in 10.0 mi South 15.0 mph 20.7 mph N/A   Mostly Cloudy
3:53 PM 91.4 °F 94.0 °F 66.2 °F 43% 30.04 in 10.0 mi SSE 10.4 mph 20.7 mph N/A   Mostly Cloudy
3:58 PM 91.4 °F 93.6 °F 65.5 °F 42% 30.00 in 10.0 mi SE 16.1 mph 21.9 mph N/A   Mostly Cloudy
4:08 PM 91.4 °F 93.2 °F 64.4 °F 41% 30.04 in 10.0 mi SSE 15.0 mph 19.6 mph N/A   Scattered Clouds
4:13 PM 91.4 °F 93.2 °F 64.4 °F 41% 30.04 in 10.0 mi SSE 17.3 mph - N/A   Mostly Cloudy
4:28 PM 89.6 °F 92.2 °F 66.2 °F 46% 30.04 in 10.0 mi SSE 17.3 mph 23.0 mph N/A   Scattered Clouds
4:48 PM 89.6 °F 92.2 °F 66.2 °F 46% 30.04 in 10.0 mi SE 17.3 mph 26.5 mph N/A   Mostly Cloudy
4:58 PM 89.6 °F 91.8 °F 65.5 °F 45% 30.00 in 10.0 mi SE 16.1 mph - N/A   Mostly Cloudy
5:18 PM 89.6 °F 91.1 °F 64.4 °F 43% 30.03 in 10.0 mi SSE 13.8 mph - N/A   Mostly Cloudy
5:58 PM 89.1 °F 91.0 °F 64.9 °F 45% 29.98 in 10.0 mi SSE 11.5 mph - N/A   Scattered Clouds
6:25 PM 86.0 °F 90.4 °F 69.8 °F 58% 30.02 in 10.0 mi ESE 24.2 mph 27.6 mph N/A   Mostly Cloudy
6:35 PM 86.0 °F 89.4 °F 68.0 °F 55% 30.02 in 10.0 mi SE 18.4 mph 26.5 mph N/A   Scattered Clouds
6:58 PM 85.5 °F 89.1 °F 68.9 °F 57% 29.98 in 10.0 mi SE 17.3 mph - N/A   Clear
7:58 PM 84.2 °F 86.6 °F 66.4 °F 55% 29.98 in 10.0 mi SSE 16.1 mph 20.7 mph N/A   Mostly Cloudy
8:58 PM 82.0 °F 83.9 °F 65.7 °F 57% 29.99 in 10.0 mi SSE 15.0 mph - N/A   Mostly Cloudy
9:58 PM 80.2 °F 82.2 °F 65.7 °F 61% 30.00 in 10.0 mi SSE 10.4 mph - N/A   Mostly Cloudy
10:58 PM 78.3 °F - 66.6 °F 67% 30.01 in 10.0 mi SE 8.1 mph - N/A   Mostly Cloudy
11:33 PM 77.0 °F - 68.0 °F 74% 30.05 in 10.0 mi SE 8.1 mph - N/A   Overcast
11:58 PM 78.6 °F - 68.2 °F 70% 30.00 in 10.0 mi SE 6.9 mph - N/A   Overcast